OISY  Yasouj  Airport

Iran

Add Bookmark
ICAO OISY
Type Airport
Status Operational
Latitude
30° 42' 1" N
30.700500
Longitude
51° 32' 42" E
51.545101
Local (DST + 5) UTC (GMT + 4)
Feb 9, 2016 10:58 Feb 9, 2016 07:28
Sunrise-Sunset Local UTC
Begin Civil Twilight 06:23 02:53
Sunrise 06:48 03:18
Sunset 05:47 14:17
End Civil Twilight 06:12 14:42
VFR
VFR
MVFR
MVFR
IFR
IFR
LIFR
LIFR
Unknown
Unavailable

Current Weather

METAR Observed VFR
OISY 090700Z 00000KT CAVOK 04/M04 Q1021 Tue, Feb 9, 2016 @ 07:00 UTC
(28 Minutes ago)
Visual Flight Rules
Wind Visibility Conditions
Calm 10 km or more
  • No significant weather
Temperatures Readings Precipitation
Current Temp
4°C
39°F
Dewpoint
-4°C
25°F
Humidity 56%
Altimeter 30.15" Hg
Sea Level Pressure 1,021 mb
Field Elevation
1,811 m
5,942 ft
None Recorded

Additional weather within a 92.6km radius of OISY

Map ICAO Location
OIAH 79.6km W/SW (240°)
VFR
VFR
MVFR
MVFR
IFR
IFR
LIFR
LIFR
Unknown
Unavailable
-
-

CheckWX.com is intended as a tool to help pilots better visualize weather data. It is not intended as a substitute for an official weather briefing obtained from a Flight Service Station. CheckWX.com does not meet the FAA requirements for an official pre-flight weather briefing. Therefore, it's important that pilots still call and obtain an official FSS pre-flight weather briefing.

© 2007-2016 CheckWX.com
07:28:33 UTC